EDT,Max TemperatureF,Mean TemperatureF,Min TemperatureF,Max Dew PointF,MeanDew PointF,Min DewpointF,Max Humidity, Mean Humidity, Min Humidity, Max Sea Level PressureIn, Mean Sea Level PressureIn, Min Sea Level PressureIn, Max VisibilityMiles, Mean VisibilityMiles, Min VisibilityMiles, Max Wind SpeedMPH, Mean Wind SpeedMPH, Max Gust SpeedMPH,PrecipitationIn, CloudCover, Events, WindDirDegrees
2012-10-1,70,54,41,49,43,37,93,69,42,29.97,29.92,29.86,10,9,1,9,2,,0.01,0,,82
2012-10-2,71,63,55,53,52,48,87,68,51,29.92,29.86,29.81,10,10,8,13,6,20,0.10,7,Rain,54
2012-10-3,69,64,60,59,56,54,90,76,60,30.08,29.99,29.89,10,7,1,13,5,20,0.01,8,Rain,193
2012-10-4,79,66,55,54,52,50,84,60,37,30.10,30.05,30.00,10,10,6,18,10,23,0.00,2,Rain,213
2012-10-5,66,56,46,58,47,40,87,69,53,30.08,30.02,29.98,10,10,8,17,11,17,0.14,7,Rain,256
2012-10-6,52,46,41,41,37,33,86,69,49,30.12,30.03,29.96,10,9,7,16,10,20,0.01,6,,258
2012-10-7,50,44,39,39,37,34,80,70,54,30.16,30.12,30.10,10,10,10,8,4,,0.00,7,Rain,285
2012-10-8,57,46,35,37,31,25,86,62,30,30.24,30.18,30.13,10,9,4,15,7,21,0.01,0,,205
2012-10-9,66,50,35,38,34,28,83,54,33,30.13,30.02,29.85,10,10,5,18,10,30,0.00,0,Snow,191
2012-10-10,55,46,37,41,36,27,82,66,44,30.18,29.94,29.81,10,10,7,20,13,34,0.11,7,Rain,263
2012-10-11,64,48,33,36,30,26,78,55,27,30.21,30.14,30.04,10,10,10,25,10,36,0.00,1,,223
2012-10-12,57,46,33,36,31,24,82,60,29,30.44,30.36,30.18,10,10,10,15,8,22,0.00,2,,343
2012-10-13,62,46,30,57,45,25,88,81,69,30.40,30.10,29.92,10,7,2,12,4,,0.53,7,Rain,174
2012-10-14,72,67,61,61,59,51,88,75,60,29.90,29.70,29.44,10,7,1,34,14,50,0.32,7,Rain,205
2012-10-15,57,52,48,49,42,39,80,66,57,29.94,29.78,29.54,10,10,10,23,17,43,0.00,8,Rain,283
2012-10-16,63,50,39,45,38,33,80,61,39,30.00,29.90,29.76,10,10,10,12,7,,0.01,3,Rain,193
2012-10-17,78,66,54,55,48,43,83,58,32,29.76,29.67,29.55,10,10,4,28,11,34,0.27,5,Rain,171
2012-10-18,64,57,48,55,45,34,87,66,36,29.68,29.53,29.38,10,9,2,23,12,33,0.32,5,Rain,177
2012-10-19,60,52,46,45,42,37,83,71,47,29.65,29.60,29.55,10,10,7,25,8,34,0.12,7,Rain,170
2012-10-20,59,52,46,45,43,41,87,76,55,29.91,29.69,29.59,10,10,6,16,9,,0.02,8,Rain,240
2012-10-21,64,50,37,45,39,34,93,74,43,30.10,30.05,29.93,10,8,0,13,5,18,0.01,0,Fog,217
2012-10-22,73,57,41,56,47,37,86,71,51,30.11,30.06,29.97,10,9,5,10,2,,0.04,1,Rain,167
2012-10-23,75,66,60,61,57,55,88,74,57,30.02,29.96,29.90,10,8,2,12,5,,0.00,7,Rain,211
2012-10-24,80,70,60,59,58,55,88,72,48,30.03,30.00,29.96,10,8,2,10,6,,0.03,3,Rain,189
2012-10-25,80,68,55,55,53,50,81,60,39,29.99,29.93,29.85,10,10,9,22,9,28,0.00,1,,180
2012-10-26,71,57,46,53,41,35,80,67,56,30.23,30.11,29.87,10,10,10,23,13,29,0.03,6,Rain,324
2012-10-27,57,49,41,38,33,30,73,58,39,30.22,30.18,30.13,10,10,10,15,10,21,0.00,2,,3
2012-10-28,53,46,39,35,30,27,73,58,45,30.21,30.16,30.11,10,10,10,23,14,31,0.00,4,,2
2012-10-29,46,44,41,32,29,26,65,56,48,30.10,29.96,29.70,10,10,10,31,18,46,0.00,8,Rain,346
2012-10-30,46,42,37,37,33,30,82,76,68,29.66,29.49,29.43,10,9,4,30,25,44,0.13,8,Rain-Snow,336
2012-10-31,45,42,39,39,36,33,83,78,71,29.67,29.58,29.50,10,9,4,21,16,30,0.05,8,Rain,311